Port Orchard, Washington, United States (98366)
Lat: 47.54N, Lon: 122.64W
Wx Zone: WAZ508
Local Info
Past Weather Observations for Thursday, October 16, 2014

NOTE: This archive is for the closest National Weather Service station to Port Orchard. Information may differ from the station used for current weather conditions.

Click here for Long-term Archive

Time Weather Temperature Dewpoint Humidity Pressure Winds Precip Visibility
23:55
Clear
48°F / 9°C 46°F / 8°C 94% 29.83 in
(1010 mb)
Calm - 10SM
23:35
Clear
46°F / 8°C 45°F / 7°C 93% 29.83 in
(1010 mb)
Calm - 10SM
23:15
Clear
46°F / 8°C 45°F / 7°C 93% 29.83 in
(1010 mb)
Calm - 10SM
22:55
Clear
46°F / 8°C 45°F / 7°C 93% 29.83 in
(1010 mb)
Calm - 10SM
22:35
Clear
46°F / 8°C 45°F / 7°C 93% 29.83 in
(1010 mb)
Calm - 10SM
22:15
Clear
46°F / 8°C 45°F / 7°C 93% 29.83 in
(1010 mb)
Calm - 10SM
21:55
Clear
46°F / 8°C 46°F / 8°C 100% 29.86 in
(1011 mb)
Calm - 10SM
21:35
Clear
46°F / 8°C 46°F / 8°C 100% 29.86 in
(1011 mb)
Calm - 10SM
21:15
Clear
46°F / 8°C 45°F / 7°C 93% 29.89 in
(1012 mb)
Calm - 10SM
20:55
Clear
46°F / 8°C 45°F / 7°C 93% 29.89 in
(1012 mb)
Calm - 10SM
20:35
Clear
46°F / 8°C 45°F / 7°C 93% 29.89 in
(1012 mb)
Calm - 10SM
20:15
Clear
46°F / 8°C 46°F / 8°C 100% 29.89 in
(1012 mb)
Calm - 10SM
19:55
Clear
48°F / 9°C 46°F / 8°C 94% 29.89 in
(1012 mb)
Calm - 10SM
19:35
Clear
48°F / 9°C 46°F / 8°C 94% 29.92 in
(1013 mb)
Calm - 10SM
19:15
Clear
48°F / 9°C 46°F / 8°C 94% 29.92 in
(1013 mb)
Calm - 10SM
18:55
Clear
50°F / 10°C 46°F / 8°C 88% 29.92 in
(1013 mb)
Calm - 7SM
18:35
Clear
52°F / 11°C 48°F / 9°C 88% 29.92 in
(1013 mb)
Calm - 10SM
18:15
Clear
52°F / 11°C 48°F / 9°C 88% 29.92 in
(1013 mb)
Calm - 10SM
17:55
Clear
54°F / 12°C 48°F / 9°C 82% 29.92 in
(1013 mb)
Calm - 10SM
17:35
Clear
54°F / 12°C 48°F / 9°C 82% 29.92 in
(1013 mb)
Calm - 2 1/2SM
17:15
Clear
57°F / 14°C 48°F / 9°C 72% 29.92 in
(1013 mb)
Calm - 10SM
16:55
Clear
57°F / 14°C 52°F / 11°C 82% 29.95 in
(1014 mb)
Calm - 10SM
16:35
Clear
61°F / 16°C 48°F / 9°C 63% 29.92 in
(1013 mb)
Calm - 10SM
16:15
Clear
63°F / 17°C 48°F / 9°C 59% 29.95 in
(1014 mb)
W 3.5 mph
(W 6 kph)
- 10SM
15:55
Clear
64°F / 18°C 48°F / 9°C 56% 29.95 in
(1014 mb)
SSW 4.6 mph
(SSW 7 kph)
- 10SM
15:35
Clear
64°F / 18°C 48°F / 9°C 56% 29.95 in
(1014 mb)
W 4.6 mph
(W 7 kph)
- 10SM
15:15
Clear
66°F / 19°C 46°F / 8°C 49% 29.95 in
(1014 mb)
Calm - 10SM
14:55
Partly Cloudy
66°F / 19°C 46°F / 8°C 49% 29.95 in
(1014 mb)
SSE 3.5 mph
(SSE 6 kph)
- 10SM
14:35
Partly Cloudy
64°F / 18°C 46°F / 8°C 52% 29.95 in
(1014 mb)
SW 3.5 mph
(SW 6 kph)
- 10SM
14:15
Clear
64°F / 18°C 46°F / 8°C 52% 29.95 in
(1014 mb)
SW 5.8 mph
(SW 9 kph)
- 10SM
13:55
Clear
64°F / 18°C 48°F / 9°C 56% 29.98 in
(1015 mb)
S 3.5 mph
(S 6 kph)
- 10SM
13:35
Clear
64°F / 18°C 48°F / 9°C 56% 29.98 in
(1015 mb)
S 3.5 mph
(S 6 kph)
- 10SM
13:15
Clear
64°F / 18°C 48°F / 9°C 56% 29.98 in
(1015 mb)
S 9.2 mph
(S 15 kph)
- 10SM
12:55
Partly Cloudy
64°F / 18°C 48°F / 9°C 56% 29.98 in
(1015 mb)
S 8.1 mph
(S 13 kph)
- 10SM
12:35
Mostly Cloudy
64°F / 18°C 48°F / 9°C 56% 30.01 in
(1016 mb)
SW 9.2 mph
(SW 15 kph)
- 9SM
12:15
Partly Cloudy
63°F / 17°C 48°F / 9°C 59% 30.01 in
(1016 mb)
S 4.6 mph
(S 7 kph)
- 10SM
11:55
Partly Cloudy
63°F / 17°C 50°F / 10°C 64% 30.01 in
(1016 mb)
SW 8.1 mph
(SW 13 kph)
- 10SM
11:35
Partly Cloudy
63°F / 17°C 50°F / 10°C 64% 30.04 in
(1017 mb)
SW 9.2 mph
(SW 15 kph)
- 10SM
11:15
Clear
63°F / 17°C 52°F / 11°C 68% 30.04 in
(1017 mb)
S 5.8 mph
(S 9 kph)
- 10SM
10:55
Clear
63°F / 17°C 52°F / 11°C 68% 30.04 in
(1017 mb)
SW 3.5 mph
(SW 6 kph)
- 10SM
10:35
Clear
59°F / 15°C 52°F / 11°C 77% 30.04 in
(1017 mb)
Calm - 10SM
10:15
Clear
57°F / 14°C 52°F / 11°C 82% 30.04 in
(1017 mb)
SSE 3.5 mph
(SSE 6 kph)
- 10SM
09:55
Partly Cloudy
57°F / 14°C 52°F / 11°C 82% 30.04 in
(1017 mb)
SW 3.5 mph
(SW 6 kph)
- 10SM
09:35
Partly Cloudy
57°F / 14°C 54°F / 12°C 88% 30.04 in
(1017 mb)
SW 3.5 mph
(SW 6 kph)
- 10SM
09:15
Mostly Cloudy
54°F / 12°C 52°F / 11°C 94% 30.04 in
(1017 mb)
Calm - 10SM
08:55
Overcast
54°F / 12°C 52°F / 11°C 94% 30.06 in
(1018 mb)
Calm - 10SM
08:35
Overcast
54°F / 12°C 52°F / 11°C 94% 30.06 in
(1018 mb)
Calm - 10SM
08:15
Overcast
52°F / 11°C 52°F / 11°C 100% 30.04 in
(1017 mb)
Calm - 10SM
07:55
Mostly Cloudy
52°F / 11°C 52°F / 11°C 100% 30.04 in
(1017 mb)
Calm - 10SM
07:35
Partly Cloudy
52°F / 11°C 50°F / 10°C 94% 30.04 in
(1017 mb)
Calm - 10SM
07:15
Mostly Cloudy
52°F / 11°C 52°F / 11°C 100% 30.04 in
(1017 mb)
Calm - 10SM
06:55
Mostly Cloudy
50°F / 10°C 48°F / 9°C 94% 30.04 in
(1017 mb)
Calm - 10SM
06:35
Partly Cloudy
50°F / 10°C 48°F / 9°C 94% 30.04 in
(1017 mb)
Calm - 10SM
06:15
Overcast
50°F / 10°C 48°F / 9°C 94% 30.04 in
(1017 mb)
Calm - 10SM
05:55
Overcast
48°F / 9°C 46°F / 8°C 94% 30.04 in
(1017 mb)
Calm - 10SM
05:35
Mostly Cloudy
48°F / 9°C 48°F / 9°C 100% 30.04 in
(1017 mb)
Calm - 10SM
05:15
Clear
46°F / 8°C 46°F / 8°C 100% 30.04 in
(1017 mb)
Calm - 10SM
04:55
Partly Cloudy
46°F / 8°C 45°F / 7°C 93% 30.04 in
(1017 mb)
Calm - 10SM
04:35
Mostly Cloudy
46°F / 8°C 45°F / 7°C 93% 30.04 in
(1017 mb)
Calm - 10SM
04:15
Partly Cloudy
48°F / 9°C 46°F / 8°C 94% 30.01 in
(1016 mb)
Calm - 10SM
03:55
Mostly Cloudy
48°F / 9°C 46°F / 8°C 94% 30.01 in
(1016 mb)
Calm - 10SM
03:35
Overcast
46°F / 8°C 46°F / 8°C 100% 30.01 in
(1016 mb)
Calm - 10SM
03:15
Mostly Cloudy
46°F / 8°C 45°F / 7°C 93% 30.01 in
(1016 mb)
Calm - 10SM
02:55
Partly Cloudy
46°F / 8°C 46°F / 8°C 100% 30.01 in
(1016 mb)
Calm - 10SM
02:35
Overcast
46°F / 8°C 46°F / 8°C 100% 30.01 in
(1016 mb)
Calm - 10SM
02:15
Overcast
48°F / 9°C 46°F / 8°C 94% 30.01 in
(1016 mb)
Calm - 5SM
01:55
Mostly Cloudy
48°F / 9°C 46°F / 8°C 94% 30.01 in
(1016 mb)
Calm - 10SM
01:35
Partly Cloudy
50°F / 10°C 48°F / 9°C 94% 30.01 in
(1016 mb)
SSW 5.8 mph
(SSW 9 kph)
- 10SM
01:15
Mostly Cloudy
50°F / 10°C 48°F / 9°C 94% 30.01 in
(1016 mb)
S 5.8 mph
(S 9 kph)
- 10SM
00:55
Overcast
50°F / 10°C 48°F / 9°C 94% 30.01 in
(1016 mb)
S 6.9 mph
(S 11 kph)
- 10SM
00:35
Mostly Cloudy
50°F / 10°C 48°F / 9°C 94% 30.01 in
(1016 mb)
S 4.6 mph
(S 7 kph)
- 10SM
00:15
Overcast
50°F / 10°C 48°F / 9°C 94% 30.01 in
(1016 mb)
S 4.6 mph
(S 7 kph)
- 10SM
Time Weather Temperature Dewpoint Humidity Pressure Winds Precip Visibility


Weather for websites

WeatherForYou.com, LLC is not responsible for any damages or problems caused by this service. Current weather conditions are obtained from the closest station including government and personal stations which may have varying degrees of accuracy. Weather forecasts are derived from the NOAA NDFD. Like all things, this site belongs to Jesus Christ... He just trusts me to maintain it. If you have any questions or comments email webmaster@weatherforyou.com

Copyright © 2014, WeatherForYou.com LLC. All rights reserved.